This is the latest recevied weather packets stored in our database for station/object SP9MUF-14. If no packets are shown the sender has not sent any weather packets the latest 10 day(s).
| Time | Temp. | Humidity | Pressure | Rain* | Wind** | Luminosity | Snow |
|---|---|---|---|---|---|---|---|
| 1787817484 | 20° C | 66% | 1021.7 hPa | 0 mm | - | 440 W/m² | - |
| 1787817181 | 18.89° C | 66% | 1021.7 hPa | 0 mm | - | 433 W/m² | - |
| 1787816577 | 18.89° C | 67% | 1021.7 hPa | 0 mm | - | 412 W/m² | - |
| 1787816275 | 18.89° C | 67% | 1021.7 hPa | 0 mm | - | 398 W/m² | - |
| 1787815973 | 17.78° C | 67% | 1021.7 hPa | 0 mm | - | 388 W/m² | - |
| 1787815670 | 17.78° C | 70% | 1021.7 hPa | 0 mm | - | 374 W/m² | - |
| 1787815368 | 17.78° C | 69% | 1021.8 hPa | 0 mm | - | 356 W/m² | - |
| 1787815066 | 17.78° C | 69% | 1021.7 hPa | 0 mm | - | 342 W/m² | - |
| 1787814461 | 16.67° C | 71% | 1021.9 hPa | 0 mm | - | 108 W/m² | - |
| 1787814159 | 16.67° C | 71% | 1021.9 hPa | 0 mm | - | 54 W/m² | - |
| 1787813857 | 16.67° C | 72% | 1021.8 hPa | 0 mm | - | 52 W/m² | - |
| 1787813554 | 16.67° C | 71% | 1021.9 hPa | 0 mm | - | 51 W/m² | - |
| 1787812950 | 15.56° C | 74% | 1021.8 hPa | 0 mm | - | 48 W/m² | - |
| 1787812345 | 15.56° C | 75% | 1022 hPa | 0 mm | - | 46 W/m² | - |
| 1787812044 | 15.56° C | 76% | 1021.9 hPa | 0 mm | - | 45 W/m² | - |
| 1787811741 | 15° C | 76% | 1021.9 hPa | 0 mm | - | 44 W/m² | - |
| 1787811439 | 15° C | 78% | 1021.9 hPa | 0 mm | - | 43 W/m² | - |
| 1787811137 | 15° C | 78% | 1022.5 hPa | 0 mm | - | 42 W/m² | - |
| 1787810532 | 13.89° C | 79% | 1021.9 hPa | 0 mm | - | 40 W/m² | - |
| 1787810230 | 13.89° C | 79% | 1022 hPa | 0 mm | - | 38 W/m² | - |
| 1787809928 | 13.89° C | 80% | 1021.9 hPa | 0 mm | - | 37 W/m² | - |
| 1787809625 | 13.89° C | 81% | 1022 hPa | 0 mm | - | 36 W/m² | - |
| 1787809323 | 13.89° C | 81% | 1022.1 hPa | 0 mm | - | 35 W/m² | - |
| 1787809021 | 13.89° C | 82% | 1022 hPa | 0 mm | - | 34 W/m² | - |
| 1787808719 | 13.89° C | 82% | 1022 hPa | 0 mm | - | 33 W/m² | - |
* Rain latest hour (hover to see other rain measurements)
** Current wind speed in m/s (hover to see current wind gust speed)